sat.trackr.live / text

‹ back to catalog

ONEWEB-0093

NORAD 45444 · 2020-020W

PAYLOAD ACTIVE UNKNOWN

§ Identity

Operator
Country
UK
Launch date
2020-03-21
Launch site
TYMSC
Launch vehicle
Mass (kg)
RCS (m²)

Purposes: comms

External: N2YO · Heavens-Above · Gunter

§ Orbital elements

Epoch: 2026-09-20T01:55:19.316352Z

Period
109.80 min
Inclination
87.8974°
Eccentricity
0.0002062
Mean motion
13.11417723 rev/d
Perigee alt
1,216.1 km
Apogee alt
1,219.2 km
Semi-major
7,595.8 km
B*
-1.2347e-3
RAAN
2.2085°
Arg perigee
98.3479°
Mean anomaly
261.7882°
Rev number
31,511

§ Raw data

ONEWEB-00931 45444U 20020W   26263.08008468 -.00000425  00000+0 -12347-2 0  99992 45444  87.8974   2.2085 0002062  98.3479 261.7882 13.11417723315118

JSON: /api/v1/satellites/45444 · /tle

For live sub-satellite position, see the globe view (requires WebGL).

§ Visibility from observer

Set your observer location to see the next 7 days of passes ≥ 10°. The values pass through the URL so the page stays shareable.

No JS? Fill the form by hand. The geolocation button needs JavaScript.